Year,Month,Day,Hour,Minute,Value (Times are PST for temperature in C)
2015,07,04,00,00,22.60
2015,07,04,00,01,22.60
2015,07,04,00,02,22.50
2015,07,04,00,03,22.40
2015,07,04,00,04,22.40
2015,07,04,00,05,22.40
2015,07,04,00,06,22.40
2015,07,04,00,07,22.40
2015,07,04,00,08,22.40
2015,07,04,00,09,22.30
2015,07,04,00,10,22.30
2015,07,04,00,11,22.30
2015,07,04,00,12,22.40
2015,07,04,00,13,22.40
2015,07,04,00,14,22.40
2015,07,04,00,15,22.40
2015,07,04,00,16,22.30
2015,07,04,00,17,22.30
2015,07,04,00,18,22.30
2015,07,04,00,19,22.30
2015,07,04,00,20,22.30
2015,07,04,00,21,22.30
2015,07,04,00,22,22.30
2015,07,04,00,23,22.30
2015,07,04,00,24,22.30
2015,07,04,00,25,22.20
2015,07,04,00,26,22.20
2015,07,04,00,27,22.20
2015,07,04,00,28,22.20
2015,07,04,00,29,22.20
2015,07,04,00,30,22.20
2015,07,04,00,31,22.20
2015,07,04,00,32,22.20
2015,07,04,00,33,22.20
2015,07,04,00,34,22.20
2015,07,04,00,35,22.20
2015,07,04,00,36,22.20
2015,07,04,00,37,22.20
2015,07,04,00,38,22.20
2015,07,04,00,39,22.20
2015,07,04,00,40,22.20
2015,07,04,00,41,22.20
2015,07,04,00,42,22.10
2015,07,04,00,43,22.10
2015,07,04,00,44,22.10
2015,07,04,00,45,22.10
2015,07,04,00,46,22.10
2015,07,04,00,47,22.10
2015,07,04,00,48,22.10
2015,07,04,00,49,22.10
2015,07,04,00,50,22.00
2015,07,04,00,51,22.00
2015,07,04,00,52,22.10
2015,07,04,00,53,22.10
2015,07,04,00,54,22.10
2015,07,04,00,55,22.00
2015,07,04,00,56,22.00
2015,07,04,00,57,22.00
2015,07,04,00,58,21.90
2015,07,04,00,59,21.90
2015,07,04,01,00,21.80
2015,07,04,01,01,21.80
2015,07,04,01,02,21.80
2015,07,04,01,03,21.70
2015,07,04,01,04,21.70
2015,07,04,01,05,21.70
2015,07,04,01,06,21.60
2015,07,04,01,07,21.60
2015,07,04,01,08,21.60
2015,07,04,01,09,21.60
2015,07,04,01,10,21.60
2015,07,04,01,11,21.60
2015,07,04,01,12,21.60
2015,07,04,01,13,21.70
2015,07,04,01,14,21.70
2015,07,04,01,15,21.80
2015,07,04,01,16,21.80
2015,07,04,01,17,21.90
2015,07,04,01,18,21.90
2015,07,04,01,19,21.90
2015,07,04,01,20,21.90
2015,07,04,01,21,21.90
2015,07,04,01,22,21.90
2015,07,04,01,23,21.90
2015,07,04,01,24,21.90
2015,07,04,01,25,22.00
2015,07,04,01,26,22.00
2015,07,04,01,27,22.10
2015,07,04,01,28,22.10
2015,07,04,01,29,22.10
2015,07,04,01,30,22.10
2015,07,04,01,31,22.10
2015,07,04,01,32,22.10
2015,07,04,01,33,22.00
2015,07,04,01,34,22.00
2015,07,04,01,35,21.90
2015,07,04,01,36,21.90
2015,07,04,01,37,21.80
2015,07,04,01,38,21.80
2015,07,04,01,39,21.80
2015,07,04,01,40,21.80
2015,07,04,01,41,21.80
2015,07,04,01,42,21.80
2015,07,04,01,43,21.80
2015,07,04,01,44,21.90
2015,07,04,01,45,21.90
2015,07,04,01,46,21.90
2015,07,04,01,47,21.90
2015,07,04,01,48,21.80
2015,07,04,01,49,21.80
2015,07,04,01,50,21.80
2015,07,04,01,51,21.70
2015,07,04,01,52,21.70
2015,07,04,01,53,21.70
2015,07,04,01,54,21.70
2015,07,04,01,55,21.70
2015,07,04,01,56,21.70
2015,07,04,01,57,21.70
2015,07,04,01,58,21.70
2015,07,04,01,59,21.70
2015,07,04,02,00,21.60
2015,07,04,02,01,21.50
2015,07,04,02,02,21.50
2015,07,04,02,03,21.40
2015,07,04,02,04,21.40
2015,07,04,02,05,21.30
2015,07,04,02,06,21.30
2015,07,04,02,07,21.20
2015,07,04,02,08,21.20
2015,07,04,02,09,21.20
2015,07,04,02,10,21.10
2015,07,04,02,11,21.10
2015,07,04,02,12,21.10
2015,07,04,02,13,21.00
2015,07,04,02,14,21.00
2015,07,04,02,15,20.90
2015,07,04,02,16,20.90
2015,07,04,02,17,20.90
2015,07,04,02,18,20.80
2015,07,04,02,19,20.80
2015,07,04,02,20,20.70
2015,07,04,02,21,20.70
2015,07,04,02,22,20.70
2015,07,04,02,23,20.70
2015,07,04,02,24,20.60
2015,07,04,02,25,20.60
2015,07,04,02,26,20.60
2015,07,04,02,27,20.50
2015,07,04,02,28,20.50
2015,07,04,02,29,20.50
2015,07,04,02,30,20.40
2015,07,04,02,31,20.40
2015,07,04,02,32,20.40
2015,07,04,02,33,20.40
2015,07,04,02,34,20.40
2015,07,04,02,35,20.40
2015,07,04,02,36,20.40
2015,07,04,02,37,20.40
2015,07,04,02,38,20.30
2015,07,04,02,39,20.30
2015,07,04,02,40,20.30
2015,07,04,02,41,20.30
2015,07,04,02,42,20.30
2015,07,04,02,43,20.30
2015,07,04,02,44,20.30
2015,07,04,02,45,20.30
2015,07,04,02,46,20.30
2015,07,04,02,47,20.30
2015,07,04,02,48,20.30
2015,07,04,02,49,20.30
2015,07,04,02,50,20.30
2015,07,04,02,51,20.30
2015,07,04,02,52,20.40
2015,07,04,02,53,20.40
2015,07,04,02,54,20.50
2015,07,04,02,55,20.50
2015,07,04,02,56,20.50
2015,07,04,02,57,20.50
2015,07,04,02,58,20.50
2015,07,04,02,59,20.50
2015,07,04,03,00,20.50
2015,07,04,03,01,20.40
2015,07,04,03,02,20.40
2015,07,04,03,03,20.40
2015,07,04,03,06,20.30
2015,07,04,03,07,20.30
2015,07,04,03,08,20.30
2015,07,04,03,09,20.30
2015,07,04,03,10,20.30
2015,07,04,03,11,20.30
2015,07,04,03,12,20.30
2015,07,04,03,13,20.20
2015,07,04,03,14,20.20
2015,07,04,03,15,20.20
2015,07,04,03,16,20.20
2015,07,04,03,17,20.20
2015,07,04,03,18,20.20
2015,07,04,03,19,20.20
2015,07,04,03,20,20.20
2015,07,04,03,21,20.10
2015,07,04,03,22,20.10
2015,07,04,03,23,20.10
2015,07,04,03,24,20.10
2015,07,04,03,25,20.10
2015,07,04,03,26,20.10
2015,07,04,03,27,20.00
2015,07,04,03,28,20.00
2015,07,04,03,29,19.90
2015,07,04,03,30,19.90
2015,07,04,03,31,19.80
2015,07,04,03,32,19.80
2015,07,04,03,33,19.80
2015,07,04,03,34,19.80
2015,07,04,03,35,19.80
2015,07,04,03,36,19.80
2015,07,04,03,37,19.80
2015,07,04,03,38,19.80
2015,07,04,03,39,19.80
2015,07,04,03,40,19.90
2015,07,04,03,41,19.90
2015,07,04,03,42,19.90
2015,07,04,03,43,19.90
2015,07,04,03,44,19.90
2015,07,04,03,45,19.90
2015,07,04,03,46,19.90
2015,07,04,03,47,19.90
2015,07,04,03,48,19.90
2015,07,04,03,49,19.90
2015,07,04,03,50,19.90
2015,07,04,03,51,19.90
2015,07,04,03,52,19.80
2015,07,04,03,53,19.80
2015,07,04,03,54,19.80
2015,07,04,03,55,19.70
2015,07,04,03,56,19.70
2015,07,04,03,57,19.60
2015,07,04,03,58,19.60
2015,07,04,03,59,19.60
2015,07,04,04,00,19.50
2015,07,04,04,01,19.40
2015,07,04,04,02,19.40
2015,07,04,04,03,19.40
2015,07,04,04,04,19.40
2015,07,04,04,05,19.30
2015,07,04,04,06,19.30
2015,07,04,04,07,19.30
2015,07,04,04,08,19.20
2015,07,04,04,09,19.20
2015,07,04,04,10,19.20
2015,07,04,04,11,19.20
2015,07,04,04,12,19.10
2015,07,04,04,13,19.10
2015,07,04,04,14,19.10
2015,07,04,04,15,19.10
2015,07,04,04,16,19.00
2015,07,04,04,17,19.00
2015,07,04,04,18,19.00
2015,07,04,04,19,19.00
2015,07,04,04,20,19.00
2015,07,04,04,21,18.90
2015,07,04,04,22,18.90
2015,07,04,04,23,18.90
2015,07,04,04,24,18.90
2015,07,04,04,25,18.90
2015,07,04,04,26,18.90
2015,07,04,04,27,18.90
2015,07,04,04,28,18.80
2015,07,04,04,29,18.80
2015,07,04,04,30,18.80
2015,07,04,04,31,18.80
2015,07,04,04,32,18.80
2015,07,04,04,33,18.80
2015,07,04,04,34,18.80
2015,07,04,04,35,18.80
2015,07,04,04,36,18.80
2015,07,04,04,37,18.80
2015,07,04,04,38,18.90
2015,07,04,04,39,19.00
2015,07,04,04,40,19.10
2015,07,04,04,41,19.10
2015,07,04,04,42,19.20
2015,07,04,04,43,19.20
2015,07,04,04,44,19.20
2015,07,04,04,45,19.20
2015,07,04,04,46,19.20
2015,07,04,04,47,19.20
2015,07,04,04,48,19.20
2015,07,04,04,49,19.20
2015,07,04,04,50,19.20
2015,07,04,04,51,19.20
2015,07,04,04,52,19.20
2015,07,04,04,53,19.20
2015,07,04,04,54,19.20
2015,07,04,04,55,19.20
2015,07,04,04,56,19.20
2015,07,04,04,57,19.20
2015,07,04,04,58,19.20
2015,07,04,04,59,19.20
2015,07,04,05,00,19.20
2015,07,04,05,01,19.10
2015,07,04,05,02,19.10
2015,07,04,05,03,19.10
2015,07,04,05,04,19.00
2015,07,04,05,05,18.90
2015,07,04,05,06,18.90
2015,07,04,05,07,18.90
2015,07,04,05,08,18.80
2015,07,04,05,09,18.80
2015,07,04,05,10,18.80
2015,07,04,05,11,18.70
2015,07,04,05,12,18.70
2015,07,04,05,13,18.70
2015,07,04,05,14,18.70
2015,07,04,05,15,18.70
2015,07,04,05,16,18.70
2015,07,04,05,17,18.70
2015,07,04,05,18,18.60
2015,07,04,05,19,18.60
2015,07,04,05,20,18.60
2015,07,04,05,21,18.60
2015,07,04,05,22,18.60
2015,07,04,05,23,18.60
2015,07,04,05,24,18.60
2015,07,04,05,25,18.60
2015,07,04,05,26,18.60
2015,07,04,05,27,18.60
2015,07,04,05,28,18.60
2015,07,04,05,29,18.60
2015,07,04,05,30,18.70
2015,07,04,05,31,18.70
2015,07,04,05,32,18.60
2015,07,04,05,33,18.60
2015,07,04,05,34,18.60
2015,07,04,05,35,18.70
2015,07,04,05,36,18.70
2015,07,04,05,37,18.70
2015,07,04,05,38,18.70
2015,07,04,05,39,18.70
2015,07,04,05,40,18.70
2015,07,04,05,41,18.70
2015,07,04,05,42,18.70
2015,07,04,05,43,18.70
2015,07,04,05,44,18.60
2015,07,04,05,45,18.60
2015,07,04,05,46,18.60
2015,07,04,05,47,18.60
2015,07,04,05,48,18.60
2015,07,04,05,49,18.60
2015,07,04,05,50,18.60
2015,07,04,05,51,18.60
2015,07,04,05,52,18.60
2015,07,04,05,53,18.60
2015,07,04,05,54,18.60
2015,07,04,05,55,18.60
2015,07,04,05,56,18.60
2015,07,04,05,57,18.60
2015,07,04,05,58,18.60
2015,07,04,05,59,18.60
2015,07,04,06,00,18.60
2015,07,04,06,01,18.60
2015,07,04,06,02,18.60
2015,07,04,06,03,18.60
2015,07,04,06,04,18.70
2015,07,04,06,05,18.80
2015,07,04,06,06,18.80
2015,07,04,06,07,18.90
2015,07,04,06,08,19.00
2015,07,04,06,09,19.00
2015,07,04,06,10,19.10
2015,07,04,06,11,19.10
2015,07,04,06,12,19.10
2015,07,04,06,13,19.20
2015,07,04,06,14,19.20
2015,07,04,06,15,19.10
2015,07,04,06,16,19.10
2015,07,04,06,17,19.10
2015,07,04,06,18,19.10
2015,07,04,06,19,19.10
2015,07,04,06,20,19.10
2015,07,04,06,21,19.20
2015,07,04,06,22,19.20
2015,07,04,06,23,19.20
2015,07,04,06,24,19.20
2015,07,04,06,25,19.20
2015,07,04,06,26,19.20
2015,07,04,06,27,19.20
2015,07,04,06,28,19.20
2015,07,04,06,29,19.20
2015,07,04,06,30,19.20
2015,07,04,06,31,19.20
2015,07,04,06,32,19.20
2015,07,04,06,33,19.20
2015,07,04,06,34,19.20
2015,07,04,06,35,19.20
2015,07,04,06,36,19.30
2015,07,04,06,37,19.30
2015,07,04,06,38,19.30
2015,07,04,06,39,19.30
2015,07,04,06,40,19.40
2015,07,04,06,41,19.40
2015,07,04,06,42,19.50
2015,07,04,06,43,19.50
2015,07,04,06,44,19.60
2015,07,04,06,45,19.60
2015,07,04,06,46,19.70
2015,07,04,06,47,19.70
2015,07,04,06,48,19.70
2015,07,04,06,49,19.70
2015,07,04,06,50,19.70
2015,07,04,06,51,19.70
2015,07,04,06,52,19.70
2015,07,04,06,53,19.80
2015,07,04,06,54,19.80
2015,07,04,06,55,19.80
2015,07,04,06,56,19.80
2015,07,04,06,57,19.80
2015,07,04,06,58,19.90
2015,07,04,06,59,19.90
2015,07,04,07,00,19.90
2015,07,04,07,01,19.90
2015,07,04,07,02,20.00
2015,07,04,07,03,20.00
2015,07,04,07,04,20.10
2015,07,04,07,05,20.10
2015,07,04,07,06,20.10
2015,07,04,07,07,20.20
2015,07,04,07,08,20.20
2015,07,04,07,09,20.20
2015,07,04,07,10,20.20
2015,07,04,07,11,20.10
2015,07,04,07,12,20.10
2015,07,04,07,13,20.10
2015,07,04,07,14,20.10
2015,07,04,07,15,20.10
2015,07,04,07,16,20.10
2015,07,04,07,17,20.10
2015,07,04,07,18,20.20
2015,07,04,07,19,20.20
2015,07,04,07,20,20.20
2015,07,04,07,21,20.20
2015,07,04,07,22,20.20
2015,07,04,07,23,20.20
2015,07,04,07,24,20.20
2015,07,04,07,25,20.30
2015,07,04,07,26,20.30
2015,07,04,07,27,20.40
2015,07,04,07,28,20.40
2015,07,04,07,29,20.40
2015,07,04,07,30,20.40
2015,07,04,07,31,20.40
2015,07,04,07,32,20.40
2015,07,04,07,33,20.40
2015,07,04,07,34,20.50
2015,07,04,07,35,20.50
2015,07,04,07,36,20.60
2015,07,04,07,37,20.60
2015,07,04,07,38,20.70
2015,07,04,07,39,20.70
2015,07,04,07,40,20.70
2015,07,04,07,41,20.70
2015,07,04,07,42,20.70
2015,07,04,07,43,20.70
2015,07,04,07,44,20.70
2015,07,04,07,45,20.70
2015,07,04,07,46,20.60
2015,07,04,07,47,20.60
2015,07,04,07,48,20.60
2015,07,04,07,49,20.50
2015,07,04,07,50,20.50
2015,07,04,07,51,20.40
2015,07,04,07,52,20.40
2015,07,04,07,53,20.40
2015,07,04,07,54,20.40
2015,07,04,07,55,20.40
2015,07,04,07,56,20.30
2015,07,04,07,57,20.30
2015,07,04,07,58,20.30
2015,07,04,07,59,20.30
2015,07,04,08,00,20.20
2015,07,04,08,01,20.20
2015,07,04,08,02,20.20
2015,07,04,08,03,20.20
2015,07,04,08,04,20.10
2015,07,04,08,05,20.10
2015,07,04,08,06,20.10
2015,07,04,08,07,20.10
2015,07,04,08,08,20.00
2015,07,04,08,09,19.90
2015,07,04,08,10,19.90
2015,07,04,08,11,19.80
2015,07,04,08,12,19.90
2015,07,04,08,13,19.90
2015,07,04,08,14,19.90
2015,07,04,08,15,19.90
2015,07,04,08,16,19.90
2015,07,04,08,17,19.80
2015,07,04,08,18,19.80
2015,07,04,08,19,19.80
2015,07,04,08,20,19.80
2015,07,04,08,21,19.70
2015,07,04,08,22,19.80
2015,07,04,08,23,19.80
2015,07,04,08,24,19.80
2015,07,04,08,25,19.90
2015,07,04,08,26,19.90
2015,07,04,08,27,20.00
2015,07,04,08,28,20.10
2015,07,04,08,29,20.20
2015,07,04,08,30,20.20
2015,07,04,08,31,20.30
2015,07,04,08,32,20.30
2015,07,04,08,33,20.40
2015,07,04,08,34,20.50
2015,07,04,08,35,20.50
2015,07,04,08,36,20.60
2015,07,04,08,37,20.60
2015,07,04,08,38,20.70
2015,07,04,08,39,20.70
2015,07,04,08,40,20.80
2015,07,04,08,41,20.80
2015,07,04,08,42,20.90
2015,07,04,08,43,20.80
2015,07,04,08,44,20.80
2015,07,04,08,45,20.80
2015,07,04,08,46,20.80
2015,07,04,08,47,20.80
2015,07,04,08,48,20.70
2015,07,04,08,49,20.70
2015,07,04,08,50,20.70
2015,07,04,08,51,20.80
2015,07,04,08,52,20.80
2015,07,04,08,53,20.80
2015,07,04,08,54,20.90
2015,07,04,08,55,20.90
2015,07,04,08,56,21.00
2015,07,04,08,57,21.20
2015,07,04,08,58,21.20
2015,07,04,08,59,21.30
2015,07,04,09,00,21.30
2015,07,04,09,01,21.30
2015,07,04,09,02,21.30
2015,07,04,09,03,21.20
2015,07,04,09,04,21.30
2015,07,04,09,05,21.20
2015,07,04,09,06,21.20
2015,07,04,09,07,21.30
2015,07,04,09,08,21.30
2015,07,04,09,09,21.30
2015,07,04,09,10,21.30
2015,07,04,09,11,21.40
2015,07,04,09,12,21.50
2015,07,04,09,13,21.60
2015,07,04,09,14,21.70
2015,07,04,09,15,21.80
2015,07,04,09,16,21.90
2015,07,04,09,17,22.10
2015,07,04,09,18,22.20
2015,07,04,09,19,22.20
2015,07,04,09,20,22.20
2015,07,04,09,21,22.20
2015,07,04,09,22,22.30
2015,07,04,09,23,22.30
2015,07,04,09,24,22.30
2015,07,04,09,25,22.30
2015,07,04,09,26,22.20
2015,07,04,09,27,22.10
2015,07,04,09,28,22.10
2015,07,04,09,29,22.00
2015,07,04,09,30,22.00
2015,07,04,09,31,22.00
2015,07,04,09,32,22.10
2015,07,04,09,33,22.10
2015,07,04,09,34,22.10
2015,07,04,09,35,22.20
2015,07,04,09,36,22.20
2015,07,04,09,37,22.30
2015,07,04,09,38,22.30
2015,07,04,09,39,22.20
2015,07,04,09,40,22.20
2015,07,04,09,41,22.20
2015,07,04,09,42,22.30
2015,07,04,09,43,22.40
2015,07,04,09,44,22.40
2015,07,04,09,45,22.40
2015,07,04,09,46,22.50
2015,07,04,09,47,22.50
2015,07,04,09,48,22.60
2015,07,04,09,49,22.70
2015,07,04,09,50,22.80
2015,07,04,09,51,23.00
2015,07,04,09,52,23.10
2015,07,04,09,53,23.20
2015,07,04,09,54,23.20
2015,07,04,09,55,23.20
2015,07,04,09,56,23.10
2015,07,04,09,57,23.00
2015,07,04,09,58,22.80
2015,07,04,09,59,22.60
2015,07,04,10,00,22.50
2015,07,04,10,01,22.30
2015,07,04,10,02,22.20
2015,07,04,10,03,22.10
2015,07,04,10,04,22.10
2015,07,04,10,05,22.10
2015,07,04,10,06,22.10
2015,07,04,10,07,22.20
2015,07,04,10,08,22.20
2015,07,04,10,09,22.10
2015,07,04,10,10,22.10
2015,07,04,10,11,22.10
2015,07,04,10,12,22.10
2015,07,04,10,13,22.20
2015,07,04,10,14,22.20
2015,07,04,10,15,22.30
2015,07,04,10,16,22.40
2015,07,04,10,17,22.40
2015,07,04,10,18,22.40
2015,07,04,10,19,22.50
2015,07,04,10,20,22.50
2015,07,04,10,21,22.60
2015,07,04,10,22,22.60
2015,07,04,10,23,22.70
2015,07,04,10,24,22.60
2015,07,04,10,25,22.60
2015,07,04,10,26,22.50
2015,07,04,10,27,22.50
2015,07,04,10,28,22.40
2015,07,04,10,29,22.40
2015,07,04,10,30,22.40
2015,07,04,10,31,22.40
2015,07,04,10,32,22.50
2015,07,04,10,33,22.60
2015,07,04,10,34,22.70
2015,07,04,10,35,22.90
2015,07,04,10,36,23.00
2015,07,04,10,37,23.10
2015,07,04,10,38,23.20
2015,07,04,10,39,23.30
2015,07,04,10,40,23.30
2015,07,04,10,41,23.20
2015,07,04,10,42,23.10
2015,07,04,10,43,23.00
2015,07,04,10,44,22.90
2015,07,04,10,45,22.80
2015,07,04,10,46,22.90
2015,07,04,10,47,22.90
2015,07,04,10,48,23.00
2015,07,04,10,49,23.00
2015,07,04,10,50,23.10
2015,07,04,10,51,23.10
2015,07,04,10,52,23.20
2015,07,04,10,53,23.20
2015,07,04,10,54,23.30
2015,07,04,10,55,23.30
2015,07,04,10,56,23.30
2015,07,04,10,57,23.40
2015,07,04,10,58,23.40
2015,07,04,10,59,23.40
2015,07,04,11,00,23.30
2015,07,04,11,01,23.20
2015,07,04,11,02,23.20
2015,07,04,11,03,23.10
2015,07,04,11,04,23.10
2015,07,04,11,05,23.10
2015,07,04,11,06,23.20
2015,07,04,11,07,23.20
2015,07,04,11,08,23.20
2015,07,04,11,09,23.20
2015,07,04,11,10,23.20
2015,07,04,11,11,23.20
2015,07,04,11,12,23.30
2015,07,04,11,13,23.50
2015,07,04,11,14,23.60
2015,07,04,11,15,23.80
2015,07,04,11,16,23.90
2015,07,04,11,17,24.00
2015,07,04,11,18,24.00
2015,07,04,11,19,24.00
2015,07,04,11,20,24.00
2015,07,04,11,21,24.00
2015,07,04,11,22,23.90
2015,07,04,11,23,23.90
2015,07,04,11,24,23.90
2015,07,04,11,25,23.90
2015,07,04,11,26,23.90
2015,07,04,11,27,24.00
2015,07,04,11,28,24.00
2015,07,04,11,29,24.00
2015,07,04,11,30,24.00
2015,07,04,11,31,23.90
2015,07,04,11,32,23.90
2015,07,04,11,33,23.90
2015,07,04,11,34,23.90
2015,07,04,11,35,23.80
2015,07,04,11,36,23.80
2015,07,04,11,37,23.70
2015,07,04,11,38,23.70
2015,07,04,11,39,23.60
2015,07,04,11,40,23.60
2015,07,04,11,41,23.70
2015,07,04,11,42,23.80
2015,07,04,11,43,23.70
2015,07,04,11,44,23.70
2015,07,04,11,45,23.80
2015,07,04,11,46,23.80
2015,07,04,11,47,23.90
2015,07,04,11,48,23.80
2015,07,04,11,49,23.70
2015,07,04,11,50,23.70
2015,07,04,11,51,23.80
2015,07,04,11,52,23.90
2015,07,04,11,53,23.90
2015,07,04,11,54,24.00
2015,07,04,11,55,24.10
2015,07,04,11,56,24.10
2015,07,04,11,57,24.30
2015,07,04,11,58,24.20
2015,07,04,11,59,24.10
2015,07,04,12,00,23.90
2015,07,04,12,01,23.80
2015,07,04,12,02,23.80
2015,07,04,12,03,23.80
2015,07,04,12,04,23.80
2015,07,04,12,05,23.70
2015,07,04,12,06,23.60
2015,07,04,12,07,23.60
2015,07,04,12,08,23.60
2015,07,04,12,09,23.70
2015,07,04,12,10,23.70
2015,07,04,12,11,23.60
2015,07,04,12,12,23.60
2015,07,04,12,13,23.70
2015,07,04,12,14,23.80
2015,07,04,12,15,23.80
2015,07,04,12,16,23.80
2015,07,04,12,17,23.80
2015,07,04,12,18,23.70
2015,07,04,12,19,23.70
2015,07,04,12,20,23.70
2015,07,04,12,21,23.70
2015,07,04,12,22,23.70
2015,07,04,12,23,23.60
2015,07,04,12,24,23.50
2015,07,04,12,25,23.40
2015,07,04,12,26,23.30
2015,07,04,12,27,23.30
2015,07,04,12,28,23.30
2015,07,04,12,29,23.20
2015,07,04,12,30,23.20
2015,07,04,12,31,23.10
2015,07,04,12,32,23.10
2015,07,04,12,33,23.10
2015,07,04,12,34,23.10
2015,07,04,12,35,23.00
2015,07,04,12,36,22.90
2015,07,04,12,37,22.70
2015,07,04,12,38,22.70
2015,07,04,12,39,22.80
2015,07,04,12,40,22.80
2015,07,04,12,41,22.80
2015,07,04,12,42,22.80
2015,07,04,12,43,22.80
2015,07,04,12,44,22.80
2015,07,04,12,45,22.70
2015,07,04,12,46,22.70
2015,07,04,12,47,22.80
2015,07,04,12,48,22.80
2015,07,04,12,49,22.80
2015,07,04,12,50,22.90
2015,07,04,12,51,22.90
2015,07,04,12,52,22.90
2015,07,04,12,53,22.90
2015,07,04,12,54,22.80
2015,07,04,12,55,22.80
2015,07,04,12,56,22.80
2015,07,04,12,57,22.70
2015,07,04,12,58,22.70
2015,07,04,12,59,22.70
2015,07,04,13,00,22.60
2015,07,04,13,01,22.60
2015,07,04,13,02,22.50
2015,07,04,13,03,22.50
2015,07,04,13,04,22.50
2015,07,04,13,05,22.50
2015,07,04,13,06,22.40
2015,07,04,13,07,22.30
2015,07,04,13,08,22.20
2015,07,04,13,09,22.10
2015,07,04,13,10,22.10
2015,07,04,13,11,22.10
2015,07,04,13,12,22.10
2015,07,04,13,13,22.20
2015,07,04,13,14,22.40
2015,07,04,13,15,22.50
2015,07,04,13,16,22.70
2015,07,04,13,17,22.80
2015,07,04,13,18,22.90
2015,07,04,13,19,23.00
2015,07,04,13,20,23.20
2015,07,04,13,21,23.30
2015,07,04,13,22,23.30
2015,07,04,13,23,23.40
2015,07,04,13,24,23.50
2015,07,04,13,25,23.60
2015,07,04,13,26,23.60
2015,07,04,13,27,23.70
2015,07,04,13,28,23.70
2015,07,04,13,29,23.80
2015,07,04,13,30,23.90
2015,07,04,13,31,24.00
2015,07,04,13,32,24.10
2015,07,04,13,33,24.30
2015,07,04,13,34,24.40
2015,07,04,13,35,24.70
2015,07,04,13,36,24.70
2015,07,04,13,37,24.80
2015,07,04,13,38,25.00
2015,07,04,13,39,25.20
2015,07,04,13,40,25.40
2015,07,04,13,41,25.50
2015,07,04,13,42,25.70
2015,07,04,13,43,25.80
2015,07,04,13,44,25.90
2015,07,04,13,45,25.90
2015,07,04,13,46,25.90
2015,07,04,13,47,25.80
2015,07,04,13,48,25.70
2015,07,04,13,49,25.60
2015,07,04,13,50,25.50
2015,07,04,13,51,25.50
2015,07,04,13,52,25.50
2015,07,04,13,53,25.50
2015,07,04,13,54,25.40
2015,07,04,13,55,25.40
2015,07,04,13,56,25.40
2015,07,04,13,57,25.50
2015,07,04,13,58,25.60
2015,07,04,13,59,25.60
2015,07,04,14,00,25.60
2015,07,04,14,01,25.70
2015,07,04,14,02,25.80
2015,07,04,14,03,25.80
2015,07,04,14,04,25.90
2015,07,04,14,05,25.90
2015,07,04,14,06,25.90
2015,07,04,14,07,26.00
2015,07,04,14,08,26.00
2015,07,04,14,09,26.10
2015,07,04,14,10,26.10
2015,07,04,14,11,26.10
2015,07,04,14,12,26.00
2015,07,04,14,13,25.90
2015,07,04,14,14,25.90
2015,07,04,14,15,25.90
2015,07,04,14,16,25.90
2015,07,04,14,17,25.90
2015,07,04,14,18,25.90
2015,07,04,14,19,25.90
2015,07,04,14,20,25.90
2015,07,04,14,21,25.90
2015,07,04,14,22,25.80
2015,07,04,14,23,25.70
2015,07,04,14,24,25.70
2015,07,04,14,25,25.70
2015,07,04,14,26,25.80
2015,07,04,14,27,25.90
2015,07,04,14,28,26.00
2015,07,04,14,29,26.10
2015,07,04,14,30,26.10
2015,07,04,14,31,26.20
2015,07,04,14,32,26.30
2015,07,04,14,33,26.40
2015,07,04,14,34,26.50
2015,07,04,14,35,26.60
2015,07,04,14,36,26.60
2015,07,04,14,37,26.80
2015,07,04,14,38,26.90
2015,07,04,14,39,27.00
2015,07,04,14,40,27.00
2015,07,04,14,41,27.10
2015,07,04,14,42,27.10
2015,07,04,14,43,27.20
2015,07,04,14,44,27.30
2015,07,04,14,45,27.40
2015,07,04,14,46,27.50
2015,07,04,14,47,27.60
2015,07,04,14,48,27.60
2015,07,04,14,49,27.60
2015,07,04,14,50,27.70
2015,07,04,14,51,27.80
2015,07,04,14,52,27.80
2015,07,04,14,53,27.70
2015,07,04,14,54,27.80
2015,07,04,14,55,27.80
2015,07,04,14,56,27.80
2015,07,04,14,57,27.80
2015,07,04,14,58,27.90
2015,07,04,14,59,28.00
2015,07,04,15,00,28.10
2015,07,04,15,01,28.10
2015,07,04,15,02,28.00
2015,07,04,15,03,27.90
2015,07,04,15,04,27.80
2015,07,04,15,05,27.70
2015,07,04,15,06,27.60
2015,07,04,15,07,27.60
2015,07,04,15,08,27.60
2015,07,04,15,09,27.70
2015,07,04,15,10,27.70
2015,07,04,15,11,27.80
2015,07,04,15,12,27.80
2015,07,04,15,13,27.80
2015,07,04,15,14,27.90
2015,07,04,15,15,27.90
2015,07,04,15,16,27.90
2015,07,04,15,17,27.90
2015,07,04,15,18,27.90
2015,07,04,15,19,27.90
2015,07,04,15,20,27.80
2015,07,04,15,21,27.80
2015,07,04,15,22,27.90
2015,07,04,15,23,27.90
2015,07,04,15,24,27.90
2015,07,04,15,25,27.90
2015,07,04,15,26,27.90
2015,07,04,15,27,27.90
2015,07,04,15,28,27.90
2015,07,04,15,29,27.80
2015,07,04,15,30,27.90
2015,07,04,15,31,27.90
2015,07,04,15,32,28.00
2015,07,04,15,33,28.00
2015,07,04,15,34,28.00
2015,07,04,15,35,28.10
2015,07,04,15,36,28.10
2015,07,04,15,37,28.10
2015,07,04,15,38,28.10
2015,07,04,15,39,28.20
2015,07,04,15,40,28.20
2015,07,04,15,41,28.20
2015,07,04,15,42,28.20
2015,07,04,15,43,28.10
2015,07,04,15,44,28.10
2015,07,04,15,45,28.10
2015,07,04,15,46,28.30
2015,07,04,15,47,28.30
2015,07,04,15,48,28.30
2015,07,04,15,49,28.40
2015,07,04,15,50,28.50
2015,07,04,15,51,28.60
2015,07,04,15,52,28.70
2015,07,04,15,53,28.80
2015,07,04,15,54,28.80
2015,07,04,15,55,28.90
2015,07,04,15,56,28.90
2015,07,04,15,57,28.90
2015,07,04,15,58,28.90
2015,07,04,15,59,28.90
2015,07,04,16,00,28.80
2015,07,04,16,01,28.80
2015,07,04,16,02,28.80
2015,07,04,16,03,28.80
2015,07,04,16,04,28.70
2015,07,04,16,05,28.50
2015,07,04,16,06,28.40
2015,07,04,16,07,28.40
2015,07,04,16,08,28.50
2015,07,04,16,09,28.50
2015,07,04,16,10,28.60
2015,07,04,16,11,28.60
2015,07,04,16,12,28.50
2015,07,04,16,13,28.50
2015,07,04,16,14,28.40
2015,07,04,16,15,28.40
2015,07,04,16,16,28.50
2015,07,04,16,17,28.60
2015,07,04,16,18,28.50
2015,07,04,16,19,28.40
2015,07,04,16,20,28.40
2015,07,04,16,21,28.40
2015,07,04,16,22,28.30
2015,07,04,16,23,28.30
2015,07,04,16,24,28.20
2015,07,04,16,25,28.20
2015,07,04,16,26,28.20
2015,07,04,16,27,28.30
2015,07,04,16,28,28.30
2015,07,04,16,29,28.40
2015,07,04,16,30,28.40
2015,07,04,16,31,28.40
2015,07,04,16,32,28.30
2015,07,04,16,33,28.30
2015,07,04,16,34,28.30
2015,07,04,16,35,28.20
2015,07,04,16,36,28.20
2015,07,04,16,37,28.10
2015,07,04,16,38,28.10
2015,07,04,16,39,28.10
2015,07,04,16,40,28.10
2015,07,04,16,41,28.20
2015,07,04,16,42,28.20
2015,07,04,16,43,28.20
2015,07,04,16,44,28.10
2015,07,04,16,45,28.10
2015,07,04,16,46,28.10
2015,07,04,16,47,28.10
2015,07,04,16,48,28.20
2015,07,04,16,49,28.20
2015,07,04,16,50,28.30
2015,07,04,16,51,28.20
2015,07,04,16,52,28.20
2015,07,04,16,53,28.30
2015,07,04,16,54,28.30
2015,07,04,16,55,28.30
2015,07,04,16,56,28.30
2015,07,04,16,57,28.40
2015,07,04,16,58,28.40
2015,07,04,16,59,28.40
2015,07,04,17,00,28.40
2015,07,04,17,01,28.40
2015,07,04,17,02,28.30
2015,07,04,17,03,28.30
2015,07,04,17,04,28.40
2015,07,04,17,05,28.50
2015,07,04,17,06,28.60
2015,07,04,17,07,28.60
2015,07,04,17,08,28.60
2015,07,04,17,09,28.60
2015,07,04,17,10,28.60
2015,07,04,17,11,28.60
2015,07,04,17,12,28.60
2015,07,04,17,13,28.60
2015,07,04,17,14,28.60
2015,07,04,17,15,28.70
2015,07,04,17,16,28.60
2015,07,04,17,17,28.60
2015,07,04,17,18,28.60
2015,07,04,17,19,28.60
2015,07,04,17,20,28.70
2015,07,04,17,21,28.70